,,,PA_Meas_PMT16A,,PR_Meas_QMR101_102,,RH_Meas_QMH101,,SR_Meas_QMS101,,TA_Meas_QMH101,,GenWind,,GenWind,
date,time,status,PA,status,PR,status,RH,status,SR,status,TA,status,DirAvg,status,SpdAvg,
2008-04-26, 00:00:05,VALID,1010.4,VALID,0,VALID,94.2772,VALID,0,VALID,24.7055,VALID,66,VALID,0.503125,
2008-04-26, 00:01:05,VALID,1010.38,VALID,0,VALID,94.2314,VALID,0,VALID,24.7464,VALID,66,VALID,0.411719,
2008-04-26, 00:02:05,VALID,1010.38,VALID,0,VALID,94.1781,VALID,0,VALID,24.7464,VALID,72,VALID,0.376953,
2008-04-26, 00:03:05,VALID,1010.39,VALID,0,VALID,94.1552,VALID,0,VALID,24.7464,VALID,71,VALID,0.419141,
2008-04-26, 00:04:05,VALID,1010.38,VALID,0,VALID,94.0865,VALID,0,VALID,24.7659,VALID,57,VALID,0.383594,
2008-04-26, 00:05:05,VALID,1010.38,VALID,0,VALID,94.0789,VALID,0,VALID,24.7678,VALID,57,VALID,0.305078,
2008-04-26, 00:06:05,VALID,1010.37,VALID,0,VALID,94.0637,VALID,0,VALID,24.7854,VALID,57,VALID,0.196875,
2008-04-26, 00:07:05,VALID,1010.37,VALID,0,VALID,93.995,VALID,0,VALID,24.7854,VALID,57,VALID,0.342969,
2008-04-26, 00:08:05,VALID,1010.35,VALID,0,VALID,93.9035,VALID,0,VALID,24.7659,VALID,57,VALID,0.137109,
2008-04-26, 00:09:05,VALID,1010.32,VALID,0,VALID,93.8425,VALID,0,VALID,24.7659,VALID,57,VALID,0.216406,
2008-04-26, 00:10:05,VALID,1010.3,VALID,0,VALID,93.8196,VALID,0,VALID,24.7464,VALID,57,VALID,0.09375,
2008-04-26, 00:11:05,VALID,1010.29,VALID,0,VALID,93.9493,VALID,0,VALID,24.7464,VALID,57,VALID,0.339063,
2008-04-26, 00:12:05,VALID,1010.26,VALID,0,VALID,94.0027,VALID,0,VALID,24.7464,VALID,57,VALID,0.314844,
2008-04-26, 00:13:05,VALID,1010.24,VALID,0,VALID,93.995,VALID,0,VALID,24.7659,VALID,57,VALID,0.198437,
2008-04-26, 00:14:05,VALID,1010.23,VALID,0,VALID,93.9188,VALID,0,VALID,24.7464,VALID,57,VALID,0.0234375,
2008-04-26, 00:15:05,VALID,1010.22,VALID,0,VALID,93.8578,VALID,0,VALID,24.7464,VALID,57,VALID,0,
2008-04-26, 00:16:05,VALID,1010.22,VALID,0,VALID,93.8959,VALID,0,VALID,24.7659,VALID,57,VALID,0,
2008-04-26, 00:17:05,VALID,1010.19,VALID,0,VALID,94.0484,VALID,0,VALID,24.7659,VALID,57,VALID,0.214844,
2008-04-26, 00:18:05,VALID,1010.22,VALID,0,VALID,94.1933,VALID,0,VALID,24.8049,VALID,75,VALID,0.322266,
2008-04-26, 00:19:05,VALID,1010.18,VALID,0,VALID,94.1781,VALID,0,VALID,24.7659,VALID,76,VALID,0.280078,
2008-04-26, 00:20:05,VALID,1010.17,VALID,0,VALID,94.1171,VALID,0,VALID,24.7464,VALID,76,VALID,0.198047,
2008-04-26, 00:21:05,VALID,1010.13,VALID,0,VALID,94.1323,VALID,0,VALID,24.7678,VALID,76,VALID,0.0667969,
2008-04-26, 00:22:05,VALID,1010.12,VALID,0,VALID,94.1476,VALID,0,VALID,24.7464,VALID,76,VALID,0,
2008-04-26, 00:23:05,VALID,1010.11,VALID,0,VALID,94.1857,VALID,0,VALID,24.7269,VALID,76,VALID,0,
2008-04-26, 00:24:05,VALID,1010.09,VALID,0,VALID,94.2696,VALID,0,VALID,24.7269,VALID,76,VALID,0,
2008-04-26, 00:25:05,VALID,1010.08,VALID,0,VALID,94.3229,VALID,0,VALID,24.7269,VALID,75,VALID,0,
2008-04-26, 00:26:05,VALID,1010.03,VALID,0,VALID,94.3229,VALID,0,VALID,24.7074,VALID,76,VALID,0,
2008-04-26, 00:27:05,VALID,1010.04,VALID,0,VALID,94.3458,VALID,0,VALID,24.7074,VALID,76,VALID,0,
2008-04-26, 00:28:05,VALID,1010.05,VALID,0,VALID,94.3992,VALID,0,VALID,24.7074,VALID,75,VALID,0,
2008-04-26, 00:29:05,VALID,1010.07,VALID,0,VALID,94.3916,VALID,0,VALID,24.6879,VALID,76,VALID,0,
2008-04-26, 00:30:05,VALID,1010.09,VALID,0,VALID,94.3611,VALID,0,VALID,24.6879,VALID,76,VALID,0,
2008-04-26, 00:31:05,VALID,1010.1,VALID,0,VALID,94.3229,VALID,0,VALID,24.6489,VALID,76,VALID,0,
2008-04-26, 00:32:05,VALID,1010.09,VALID,0,VALID,94.3229,VALID,0.105969,VALID,24.6489,VALID,75,VALID,0,
2008-04-26, 00:33:05,VALID,1010.08,VALID,0,VALID,94.3458,VALID,0,VALID,24.6508,VALID,75,VALID,0.235156,
2008-04-26, 00:34:05,VALID,1010.09,VALID,0,VALID,94.4221,VALID,0,VALID,24.6508,VALID,76,VALID,0.176172,
2008-04-26, 00:35:05,VALID,1010.06,VALID,0,VALID,94.4145,VALID,0,VALID,24.6294,VALID,76,VALID,0.154297,
2008-04-26, 00:36:05,VALID,1010.05,VALID,0,VALID,94.4602,VALID,0,VALID,24.6099,VALID,75,VALID,0.171094,
2008-04-26, 00:37:05,VALID,1010.05,VALID,0,VALID,94.4373,VALID,0,VALID,24.6099,VALID,75,VALID,0.173438,
2008-04-26, 00:38:05,VALID,1010.05,VALID,0,VALID,94.4526,VALID,0,VALID,24.5905,VALID,76,VALID,0.115234,
2008-04-26, 00:39:05,VALID,1010.02,VALID,0,VALID,94.4678,VALID,0,VALID,24.5923,VALID,75,VALID,0.213672,
2008-04-26, 00:40:05,VALID,1010.02,VALID,0,VALID,94.4831,VALID,0,VALID,24.571,VALID,75,VALID,0.219531,
2008-04-26, 00:41:05,VALID,1010.02,VALID,0,VALID,94.5288,VALID,0,VALID,24.571,VALID,76,VALID,0.227734,
2008-04-26, 00:42:05,VALID,1010.04,VALID,0,VALID,94.5365,VALID,0,VALID,24.571,VALID,75,VALID,0.201953,
2008-04-26, 00:43:05,VALID,1010.01,VALID,0,VALID,94.5517,VALID,0,VALID,24.5515,VALID,75,VALID,0.0257812,
2008-04-26, 00:44:05,VALID,1009.99,VALID,0,VALID,94.5746,VALID,0,VALID,24.571,VALID,76,VALID,0.0953125,
2008-04-26, 00:45:05,VALID,1010.02,VALID,0,VALID,94.5822,VALID,0,VALID,24.5533,VALID,75,VALID,0.187109,
2008-04-26, 00:46:05,VALID,1010.04,VALID,0,VALID,94.5822,VALID,0,VALID,24.532,VALID,76,VALID,0.263672,
2008-04-26, 00:47:05,VALID,1010.01,VALID,0,VALID,94.6203,VALID,0,VALID,24.5533,VALID,60,VALID,0.391797,
2008-04-26, 00:48:05,VALID,1010.04,VALID,0,VALID,94.5746,VALID,0,VALID,24.5533,VALID,42,VALID,0.401172,
2008-04-26, 00:49:05,VALID,1010.02,VALID,0,VALID,94.567,VALID,0,VALID,24.5144,VALID,42,VALID,0.426172,
2008-04-26, 00:50:05,VALID,1010.03,VALID,0,VALID,94.6432,VALID,0,VALID,24.493,VALID,42,VALID,0.321484,
2008-04-26, 00:51:05,VALID,1010.02,VALID,0,VALID,94.7271,VALID,0,VALID,24.493,VALID,42,VALID,0.333203,
2008-04-26, 00:52:05,VALID,1010.02,VALID,0,VALID,94.811,VALID,0,VALID,24.4735,VALID,42,VALID,0.279297,
2008-04-26, 00:53:05,VALID,1010.03,VALID,0,VALID,94.8644,VALID,0,VALID,24.4522,VALID,42,VALID,0.28125,
2008-04-26, 00:54:05,VALID,1010.04,VALID,0,VALID,94.8568,VALID,0,VALID,24.4754,VALID,42,VALID,0.335938,
2008-04-26, 00:55:05,VALID,1010.03,VALID,0,VALID,94.811,VALID,0,VALID,24.454,VALID,42,VALID,0.358594,
2008-04-26, 00:56:05,VALID,1009.98,VALID,0,VALID,94.8415,VALID,0,VALID,24.4364,VALID,42,VALID,0.379297,
2008-04-26, 00:57:05,VALID,1009.98,VALID,0,VALID,94.8949,VALID,0,VALID,24.4364,VALID,42,VALID,0.176953,
2008-04-26, 00:58:05,VALID,1009.97,VALID,0,VALID,94.9178,VALID,0,VALID,24.415,VALID,42,VALID,0.160156,
2008-04-26, 00:59:05,VALID,1009.96,VALID,0,VALID,94.9025,VALID,0.105969,VALID,24.415,VALID,42,VALID,0,
2008-04-26, 01:00:05,VALID,1009.93,VALID,0,VALID,94.8949,VALID,0,VALID,24.3956,VALID,42,VALID,0,
2008-04-26, 01:01:05,VALID,1009.94,VALID,0,VALID,94.9254,VALID,0,VALID,24.3956,VALID,42,VALID,0.0222656,
2008-04-26, 01:02:05,VALID,1009.96,VALID,0,VALID,94.933,VALID,0,VALID,24.3761,VALID,42,VALID,0.269141,
2008-04-26, 01:03:05,VALID,1009.96,VALID,0,VALID,94.933,VALID,0,VALID,24.3761,VALID,42,VALID,0.324219,
2008-04-26, 01:04:05,VALID,1009.95,VALID,0,VALID,94.9406,VALID,0,VALID,24.3566,VALID,42,VALID,0.314453,
2008-04-26, 01:05:05,VALID,1009.94,VALID,0,VALID,95.0016,VALID,0,VALID,24.3974,VALID,53,VALID,0.430078,
2008-04-26, 01:06:05,VALID,1009.95,VALID,0,VALID,95.0474,VALID,0,VALID,24.3761,VALID,58,VALID,0.611328,
2008-04-26, 01:07:05,VALID,1009.91,VALID,0,VALID,95.0931,VALID,0,VALID,24.3761,VALID,59,VALID,0.3625,
2008-04-26, 01:08:05,VALID,1009.93,VALID,0,VALID,95.0855,VALID,0,VALID,24.3761,VALID,47,VALID,0.415625,
2008-04-26, 01:09:05,VALID,1009.91,VALID,0,VALID,95.0703,VALID,0.105969,VALID,24.3761,VALID,47,VALID,0.441406,
2008-04-26, 01:10:05,VALID,1009.95,VALID,0,VALID,95.0855,VALID,0,VALID,24.3761,VALID,43,VALID,0.371484,
2008-04-26, 01:11:05,VALID,1009.89,VALID,0,VALID,95.1008,VALID,0,VALID,24.3779,VALID,43,VALID,0.237891,
2008-04-26, 01:12:05,VALID,1009.9,VALID,0,VALID,95.0626,VALID,0.105969,VALID,24.3956,VALID,33,VALID,0.230469,
2008-04-26, 01:13:05,VALID,1009.87,VALID,0,VALID,95.0474,VALID,0.105969,VALID,24.3742,VALID,30,VALID,0.404297,
2008-04-26, 01:14:05,VALID,1009.84,VALID,0,VALID,95.0703,VALID,0.105969,VALID,24.3547,VALID,17,VALID,0.297266,
2008-04-26, 01:15:05,VALID,1009.83,VALID,0,VALID,95.0779,VALID,0.105969,VALID,24.3352,VALID,17,VALID,0.243359,
2008-04-26, 01:16:05,VALID,1009.8,VALID,0,VALID,95.1236,VALID,0.105969,VALID,24.3547,VALID,321,VALID,0.314844,
2008-04-26, 01:17:05,VALID,1009.79,VALID,0,VALID,95.1389,VALID,0.105969,VALID,24.3352,VALID,321,VALID,0.158594,
2008-04-26, 01:18:05,VALID,1009.81,VALID,0,VALID,95.1465,VALID,0.105969,VALID,24.3566,VALID,319,VALID,0.0425781,
2008-04-26, 01:19:05,VALID,1009.77,VALID,0,VALID,95.116,VALID,0.105969,VALID,24.3761,VALID,319,VALID,0,
2008-04-26, 01:20:05,VALID,1009.76,VALID,0,VALID,95.1236,VALID,0.105969,VALID,24.3761,VALID,319,VALID,0,
2008-04-26, 01:21:05,VALID,1009.8,VALID,0,VALID,95.1236,VALID,0.105969,VALID,24.3547,VALID,319,VALID,0.192578,
2008-04-26, 01:22:05,VALID,1009.8,VALID,0,VALID,95.1008,VALID,0.105969,VALID,24.3547,VALID,319,VALID,0.0105469,
2008-04-26, 01:23:05,VALID,1009.79,VALID,0,VALID,95.1008,VALID,0.211938,VALID,24.3547,VALID,319,VALID,0.00195313,
2008-04-26, 01:24:05,VALID,1009.82,VALID,0,VALID,95.0703,VALID,0.105969,VALID,24.3352,VALID,319,VALID,0.0394531,
2008-04-26, 01:25:05,VALID,1009.84,VALID,0,VALID,95.0703,VALID,0.105969,VALID,24.3352,VALID,319,VALID,0.0460938,
2008-04-26, 01:26:04,VALID,1009.87,VALID,0,VALID,95.0931,VALID,0.105969,VALID,24.3566,VALID,319,VALID,0.221484,
2008-04-26, 01:27:04,VALID,1009.84,VALID,0,VALID,95.0931,VALID,0.105969,VALID,24.3371,VALID,68,VALID,0.460547,
2008-04-26, 01:28:04,VALID,1009.85,VALID,0,VALID,95.0855,VALID,0,VALID,24.3371,VALID,68,VALID,0.206641,
2008-04-26, 01:29:04,VALID,1009.85,VALID,0,VALID,95.0931,VALID,0,VALID,24.3584,VALID,70,VALID,0.436328,
2008-04-26, 01:30:04,VALID,1009.83,VALID,0,VALID,95.0931,VALID,0,VALID,24.3371,VALID,70,VALID,0.323828,
2008-04-26, 01:31:04,VALID,1009.82,VALID,0,VALID,95.0703,VALID,0.105969,VALID,24.3371,VALID,39,VALID,0.282422,
2008-04-26, 01:32:04,VALID,1009.83,VALID,0,VALID,95.0626,VALID,0,VALID,24.3371,VALID,39,VALID,0.153906,
2008-04-26, 01:33:04,VALID,1009.83,VALID,0,VALID,95.0398,VALID,0,VALID,24.3371,VALID,39,VALID,0.230078,
2008-04-26, 01:34:04,VALID,1009.8,VALID,0,VALID,95.0016,VALID,0.105969,VALID,24.3371,VALID,39,VALID,0.262109,
2008-04-26, 01:35:04,VALID,1009.8,VALID,0,VALID,95.0016,VALID,0,VALID,24.3371,VALID,10,VALID,0.39375,
2008-04-26, 01:36:04,VALID,1009.79,VALID,0,VALID,94.9635,VALID,0,VALID,24.3371,VALID,355,VALID,0.332812,
2008-04-26, 01:37:04,VALID,1009.78,VALID,0,VALID,94.9406,VALID,0.105969,VALID,24.3371,VALID,354,VALID,0.329297,
2008-04-26, 01:38:04,VALID,1009.76,VALID,0,VALID,94.9254,VALID,0,VALID,24.3371,VALID,354,VALID,0.0835937,
2008-04-26, 01:39:04,VALID,1009.75,VALID,0,VALID,94.9483,VALID,0,VALID,24.3371,VALID,354,VALID,0.0597656,
2008-04-26, 01:40:04,VALID,1009.75,VALID,0,VALID,94.9483,VALID,0,VALID,24.3371,VALID,354,VALID,0,
2008-04-26, 01:41:04,VALID,1009.73,VALID,0,VALID,94.8949,VALID,0,VALID,24.3371,VALID,354,VALID,0,
2008-04-26, 01:42:04,VALID,1009.73,VALID,0,VALID,94.9101,VALID,0,VALID,24.3176,VALID,354,VALID,0,
2008-04-26, 01:43:04,VALID,1009.71,VALID,0,VALID,94.9101,VALID,0,VALID,24.3176,VALID,354,VALID,0,
2008-04-26, 01:44:04,VALID,1009.65,VALID,0,VALID,94.9178,VALID,0.105969,VALID,24.3176,VALID,354,VALID,0,
2008-04-26, 01:45:04,VALID,1009.66,VALID,0,VALID,94.9254,VALID,0,VALID,24.3176,VALID,354,VALID,0,
2008-04-26, 01:46:04,VALID,1009.64,VALID,0,VALID,94.933,VALID,0,VALID,24.3194,VALID,354,VALID,0,
2008-04-26, 01:47:04,VALID,1009.62,VALID,0,VALID,94.933,VALID,0,VALID,24.3176,VALID,354,VALID,0,
2008-04-26, 01:48:04,VALID,1009.63,VALID,0,VALID,94.9711,VALID,0,VALID,24.3176,VALID,354,VALID,0.204688,
2008-04-26, 01:49:04,VALID,1009.6,VALID,0,VALID,95.0626,VALID,0,VALID,24.3371,VALID,354,VALID,0.135937,
2008-04-26, 01:50:04,VALID,1009.61,VALID,0,VALID,95.1008,VALID,0,VALID,24.3566,VALID,354,VALID,0.200391,
2008-04-26, 01:51:04,VALID,1009.62,VALID,0,VALID,95.0855,VALID,0,VALID,24.3779,VALID,354,VALID,0.201953,
2008-04-26, 01:52:04,VALID,1009.58,VALID,0,VALID,95.0931,VALID,0,VALID,24.3761,VALID,354,VALID,0.0238281,
2008-04-26, 01:53:04,VALID,1009.58,VALID,0,VALID,95.0321,VALID,0,VALID,24.3761,VALID,354,VALID,0.195313,
2008-04-26, 01:54:04,VALID,1009.57,VALID,0,VALID,94.994,VALID,0,VALID,24.3761,VALID,354,VALID,0.163281,
2008-04-26, 01:55:04,VALID,1009.56,VALID,0,VALID,94.9635,VALID,0,VALID,24.3761,VALID,354,VALID,0.0132813,
2008-04-26, 01:56:04,VALID,1009.52,VALID,0,VALID,94.933,VALID,0,VALID,24.3761,VALID,354,VALID,0.132813,
2008-04-26, 01:57:04,VALID,1009.5,VALID,0,VALID,94.9178,VALID,0,VALID,24.3956,VALID,354,VALID,0.123438,
2008-04-26, 01:58:04,VALID,1009.49,VALID,0,VALID,94.9025,VALID,0,VALID,24.3956,VALID,354,VALID,0.182812,
2008-04-26, 01:59:04,VALID,1009.48,VALID,0,VALID,94.9101,VALID,0,VALID,24.3956,VALID,354,VALID,0.0308594,
2008-04-26, 02:00:04,VALID,1009.5,VALID,0,VALID,94.872,VALID,0,VALID,24.3956,VALID,354,VALID,0,
2008-04-26, 02:01:04,VALID,1009.51,VALID,0,VALID,94.8568,VALID,0,VALID,24.3956,VALID,354,VALID,0,
2008-04-26, 02:02:04,VALID,1009.49,VALID,0,VALID,94.8339,VALID,0,VALID,24.3761,VALID,354,VALID,0,
2008-04-26, 02:03:04,VALID,1009.49,VALID,0,VALID,94.7957,VALID,0,VALID,24.3956,VALID,354,VALID,0,
2008-04-26, 02:04:04,VALID,1009.49,VALID,0,VALID,94.7881,VALID,0,VALID,24.3566,VALID,354,VALID,0,
2008-04-26, 02:05:04,VALID,1009.48,VALID,0,VALID,94.7805,VALID,0,VALID,24.3779,VALID,354,VALID,0,
2008-04-26, 02:06:04,VALID,1009.45,VALID,0,VALID,94.8034,VALID,0,VALID,24.3566,VALID,354,VALID,0,
2008-04-26, 02:07:04,VALID,1009.46,VALID,0,VALID,94.8339,VALID,0,VALID,24.3371,VALID,354,VALID,0,
2008-04-26, 02:08:04,VALID,1009.42,VALID,0,VALID,94.8339,VALID,0,VALID,24.3371,VALID,354,VALID,0,
2008-04-26, 02:09:04,VALID,1009.39,VALID,0,VALID,94.8644,VALID,0,VALID,24.3371,VALID,354,VALID,0,
2008-04-26, 02:10:04,VALID,1009.4,VALID,0,VALID,94.9025,VALID,0,VALID,24.3371,VALID,354,VALID,0,
2008-04-26, 02:11:04,VALID,1009.34,VALID,0,VALID,94.9711,VALID,0,VALID,24.3584,VALID,354,VALID,0.228516,
2008-04-26, 02:12:04,VALID,1009.32,VALID,0,VALID,94.9635,VALID,0,VALID,24.3566,VALID,352,VALID,0.304688,
2008-04-26, 02:13:04,VALID,1009.29,VALID,0,VALID,94.9254,VALID,0,VALID,24.3761,VALID,352,VALID,0.234766,
2008-04-26, 02:14:04,VALID,1009.28,VALID,0,VALID,94.8873,VALID,0,VALID,24.3566,VALID,352,VALID,0.236719,
2008-04-26, 02:15:04,VALID,1009.25,VALID,0,VALID,94.8415,VALID,0,VALID,24.3371,VALID,352,VALID,0.123047,
2008-04-26, 02:16:04,VALID,1009.25,VALID,0,VALID,94.7881,VALID,0,VALID,24.3566,VALID,352,VALID,0.0210938,
2008-04-26, 02:17:04,VALID,1009.24,VALID,0,VALID,94.7652,VALID,0,VALID,24.3371,VALID,352,VALID,0,
2008-04-26, 02:18:04,VALID,1009.24,VALID,0,VALID,94.7195,VALID,0,VALID,24.3584,VALID,352,VALID,0,
2008-04-26, 02:19:04,VALID,1009.24,VALID,0,VALID,94.7347,VALID,0,VALID,24.3371,VALID,352,VALID,0,
2008-04-26, 02:20:04,VALID,1009.25,VALID,0,VALID,94.7195,VALID,0,VALID,24.2981,VALID,352,VALID,0.0972656,
2008-04-26, 02:21:04,VALID,1009.26,VALID,0,VALID,94.7347,VALID,0,VALID,24.2981,VALID,352,VALID,0.233594,
2008-04-26, 02:22:04,VALID,1009.24,VALID,0,VALID,94.7195,VALID,0,VALID,24.2981,VALID,352,VALID,0.236719,
2008-04-26, 02:23:04,VALID,1009.25,VALID,0,VALID,94.7652,VALID,0,VALID,24.3,VALID,352,VALID,0.179297,
2008-04-26, 02:24:04,VALID,1009.22,VALID,0,VALID,94.7729,VALID,0,VALID,24.261,VALID,352,VALID,0.143359,
2008-04-26, 02:25:04,VALID,1009.22,VALID,0,VALID,94.811,VALID,0,VALID,24.2805,VALID,352,VALID,0.144141,
2008-04-26, 02:26:04,VALID,1009.23,VALID,0,VALID,94.8415,VALID,0,VALID,24.261,VALID,352,VALID,0.119531,
2008-04-26, 02:27:04,VALID,1009.23,VALID,0,VALID,94.9025,VALID,0,VALID,24.2183,VALID,352,VALID,0.0617188,
2008-04-26, 02:28:04,VALID,1009.21,VALID,0,VALID,94.933,VALID,0,VALID,24.2183,VALID,352,VALID,0.151172,
2008-04-26, 02:29:04,VALID,1009.23,VALID,0,VALID,94.9635,VALID,0,VALID,24.2396,VALID,352,VALID,0.133203,
2008-04-26, 02:30:04,VALID,1009.25,VALID,0,VALID,94.9788,VALID,0.105969,VALID,24.1988,VALID,352,VALID,0.147266,
2008-04-26, 02:31:04,VALID,1009.25,VALID,0,VALID,95.0016,VALID,0.105969,VALID,24.1988,VALID,352,VALID,0.229297,
2008-04-26, 02:32:04,VALID,1009.25,VALID,0,VALID,95.0321,VALID,0.105969,VALID,24.1988,VALID,352,VALID,0.339453,
2008-04-26, 02:33:04,VALID,1009.29,VALID,0,VALID,95.1084,VALID,0,VALID,24.1793,VALID,51,VALID,0.441016,
2008-04-26, 02:34:04,VALID,1009.3,VALID,0,VALID,95.1847,VALID,0.105969,VALID,24.2202,VALID,51,VALID,0.394922,
2008-04-26, 02:35:04,VALID,1009.32,VALID,0,VALID,95.238,VALID,0,VALID,24.2396,VALID,67,VALID,0.423828,
2008-04-26, 02:36:04,VALID,1009.32,VALID,0,VALID,95.2457,VALID,0.105969,VALID,24.2378,VALID,67,VALID,0.282031,
2008-04-26, 02:37:04,VALID,1009.34,VALID,0,VALID,95.2533,VALID,0,VALID,24.2591,VALID,67,VALID,0.296094,
2008-04-26, 02:38:04,VALID,1009.3,VALID,0,VALID,95.2533,VALID,0,VALID,24.2378,VALID,67,VALID,0.223828,
2008-04-26, 02:39:04,VALID,1009.34,VALID,0,VALID,95.2228,VALID,0.105969,VALID,24.2378,VALID,68,VALID,0.190234,
2008-04-26, 02:40:04,VALID,1009.31,VALID,0,VALID,95.1618,VALID,0,VALID,24.2396,VALID,67,VALID,0.0375,
2008-04-26, 02:41:04,VALID,1009.33,VALID,0,VALID,95.1389,VALID,0,VALID,24.2202,VALID,67,VALID,0.0726563,
2008-04-26, 02:42:04,VALID,1009.36,VALID,0,VALID,95.1923,VALID,0,VALID,24.2415,VALID,67,VALID,0.221094,
2008-04-26, 02:43:04,VALID,1009.38,VALID,0,VALID,95.2075,VALID,0,VALID,24.2415,VALID,67,VALID,0.150391,
2008-04-26, 02:44:04,VALID,1009.4,VALID,0,VALID,95.1923,VALID,0,VALID,24.2007,VALID,68,VALID,0.198437,
2008-04-26, 02:45:04,VALID,1009.38,VALID,0,VALID,95.2228,VALID,0,VALID,24.2007,VALID,67,VALID,0.257813,
2008-04-26, 02:46:04,VALID,1009.38,VALID,0,VALID,95.238,VALID,0,VALID,24.2007,VALID,68,VALID,0.215625,
2008-04-26, 02:47:04,VALID,1009.41,VALID,0,VALID,95.1999,VALID,0,VALID,24.2025,VALID,67,VALID,0.233984,
2008-04-26, 02:48:04,VALID,1009.41,VALID,0,VALID,95.1847,VALID,0,VALID,24.1617,VALID,67,VALID,0.193359,
2008-04-26, 02:49:04,VALID,1009.42,VALID,0,VALID,95.1923,VALID,0,VALID,24.1617,VALID,68,VALID,0.121484,
2008-04-26, 02:50:04,VALID,1009.43,VALID,0,VALID,95.2304,VALID,0,VALID,24.1422,VALID,67,VALID,0.149219,
2008-04-26, 02:51:04,VALID,1009.45,VALID,0,VALID,95.238,VALID,0,VALID,24.1422,VALID,67,VALID,0.130078,
2008-04-26, 02:52:04,VALID,1009.45,VALID,0,VALID,95.2762,VALID,0,VALID,24.1422,VALID,67,VALID,0.106641,
2008-04-26, 02:53:04,VALID,1009.48,VALID,0,VALID,95.3067,VALID,0,VALID,24.1635,VALID,67,VALID,0.101953,
2008-04-26, 02:54:04,VALID,1009.48,VALID,0,VALID,95.2762,VALID,0,VALID,24.1422,VALID,67,VALID,0.133203,
2008-04-26, 02:55:04,VALID,1009.49,VALID,0,VALID,95.299,VALID,0,VALID,24.1635,VALID,67,VALID,0.00820312,
2008-04-26, 02:56:04,VALID,1009.5,VALID,0,VALID,95.2685,VALID,0,VALID,24.1032,VALID,67,VALID,0.0910156,
2008-04-26, 02:57:04,VALID,1009.51,VALID,0,VALID,95.2685,VALID,0,VALID,24.1245,VALID,67,VALID,0.121875,
2008-04-26, 02:58:04,VALID,1009.49,VALID,0,VALID,95.2762,VALID,0,VALID,24.1051,VALID,67,VALID,0,
2008-04-26, 02:59:04,VALID,1009.51,VALID,0,VALID,95.2838,VALID,0,VALID,24.0837,VALID,68,VALID,0,
2008-04-26, 03:00:04,VALID,1009.51,VALID,0,VALID,95.3143,VALID,0,VALID,24.0856,VALID,67,VALID,0,
2008-04-26, 03:01:04,VALID,1009.52,VALID,0,VALID,95.3448,VALID,0,VALID,24.0856,VALID,67,VALID,0,
2008-04-26, 03:02:04,VALID,1009.53,VALID,0,VALID,95.3677,VALID,0,VALID,24.0643,VALID,68,VALID,0,
2008-04-26, 03:03:04,VALID,1009.54,VALID,0,VALID,95.3982,VALID,0,VALID,24.0643,VALID,67,VALID,0,
2008-04-26, 03:04:04,VALID,1009.55,VALID,0,VALID,95.4134,VALID,0,VALID,24.0643,VALID,67,VALID,0,
2008-04-26, 03:05:04,VALID,1009.53,VALID,0,VALID,95.4287,VALID,0,VALID,24.0856,VALID,68,VALID,0,
2008-04-26, 03:06:04,VALID,1009.54,VALID,0,VALID,95.4516,VALID,0,VALID,24.0643,VALID,67,VALID,0,
2008-04-26, 03:07:04,VALID,1009.48,VALID,0,VALID,95.4668,VALID,0,VALID,24.0643,VALID,67,VALID,0,
2008-04-26, 03:08:04,VALID,1009.47,VALID,0,VALID,95.4592,VALID,0,VALID,24.0856,VALID,67,VALID,0,
2008-04-26, 03:09:04,VALID,1009.43,VALID,0,VALID,95.4821,VALID,0,VALID,24.0661,VALID,67,VALID,0,
2008-04-26, 03:10:04,VALID,1009.44,VALID,0,VALID,95.5354,VALID,0,VALID,24.0643,VALID,67,VALID,0,
2008-04-26, 03:11:04,VALID,1009.4,VALID,0,VALID,95.5812,VALID,0,VALID,24.0837,VALID,68,VALID,0,
2008-04-26, 03:12:04,VALID,1009.41,VALID,0,VALID,95.6803,VALID,0,VALID,24.144,VALID,67,VALID,0,
2008-04-26, 03:13:04,VALID,1009.39,VALID,0,VALID,95.7032,VALID,0,VALID,24.1635,VALID,67,VALID,0,
2008-04-26, 03:14:04,VALID,1009.39,VALID,0,VALID,95.7261,VALID,0,VALID,24.183,VALID,67,VALID,0,
2008-04-26, 03:15:04,VALID,1009.37,VALID,0,VALID,95.7185,VALID,0,VALID,24.1812,VALID,67,VALID,0.0828125,
2008-04-26, 03:16:04,VALID,1009.39,VALID,0,VALID,95.7185,VALID,0,VALID,24.222,VALID,68,VALID,0,
2008-04-26, 03:17:04,VALID,1009.4,VALID,0,VALID,95.6346,VALID,0,VALID,24.2025,VALID,67,VALID,0,
2008-04-26, 03:18:04,VALID,1009.37,VALID,0,VALID,95.6422,VALID,0,VALID,24.1812,VALID,67,VALID,0.216406,
2008-04-26, 03:19:04,VALID,1009.37,VALID,0,VALID,95.6117,VALID,0,VALID,24.183,VALID,67,VALID,0.235156,
2008-04-26, 03:20:04,VALID,1009.37,VALID,0,VALID,95.6041,VALID,0,VALID,24.1812,VALID,67,VALID,0.224609,
2008-04-26, 03:21:04,VALID,1009.35,VALID,0,VALID,95.6422,VALID,0,VALID,24.1617,VALID,67,VALID,0.204297,
2008-04-26, 03:22:04,VALID,1009.34,VALID,0,VALID,95.6193,VALID,0,VALID,24.1617,VALID,67,VALID,0.182812,
2008-04-26, 03:23:04,VALID,1009.33,VALID,0,VALID,95.6117,VALID,0,VALID,24.183,VALID,68,VALID,0.214844,
2008-04-26, 03:24:04,VALID,1009.3,VALID,0,VALID,95.6117,VALID,0,VALID,24.1812,VALID,67,VALID,0.114453,
2008-04-26, 03:25:04,VALID,1009.31,VALID,0,VALID,95.5964,VALID,0,VALID,24.1617,VALID,68,VALID,0.0773437,
2008-04-26, 03:26:04,VALID,1009.3,VALID,0,VALID,95.5888,VALID,0,VALID,24.1422,VALID,67,VALID,0,
2008-04-26, 03:27:04,VALID,1009.28,VALID,0,VALID,95.5888,VALID,0,VALID,24.1227,VALID,68,VALID,0,
2008-04-26, 03:28:04,VALID,1009.3,VALID,0,VALID,95.5659,VALID,0,VALID,24.144,VALID,67,VALID,0,
2008-04-26, 03:29:04,VALID,1009.25,VALID,0,VALID,95.5812,VALID,0,VALID,24.1422,VALID,67,VALID,0,
2008-04-26, 03:30:04,VALID,1009.26,VALID,0,VALID,95.6193,VALID,0,VALID,24.1227,VALID,67,VALID,0,
2008-04-26, 03:31:04,VALID,1009.24,VALID,0,VALID,95.6346,VALID,0.105969,VALID,24.1227,VALID,68,VALID,0.213672,
2008-04-26, 03:32:04,VALID,1009.26,VALID,0,VALID,95.6346,VALID,0,VALID,24.1227,VALID,67,VALID,0.198437,
2008-04-26, 03:33:04,VALID,1009.22,VALID,0,VALID,95.6574,VALID,0,VALID,24.1422,VALID,67,VALID,0.234375,
2008-04-26, 03:34:04,VALID,1009.21,VALID,0,VALID,95.6803,VALID,0,VALID,24.1422,VALID,68,VALID,0.177344,
2008-04-26, 03:35:04,VALID,1009.2,VALID,0,VALID,95.6651,VALID,0,VALID,24.1227,VALID,67,VALID,0.1125,
2008-04-26, 03:36:04,VALID,1009.21,VALID,0,VALID,95.6574,VALID,0,VALID,24.1617,VALID,68,VALID,0.0429688,
2008-04-26, 03:37:04,VALID,1009.22,VALID,0,VALID,95.6956,VALID,0,VALID,24.1617,VALID,67,VALID,0,
2008-04-26, 03:38:04,VALID,1009.23,VALID,0,VALID,95.7108,VALID,0,VALID,24.2025,VALID,68,VALID,0.246094,
2008-04-26, 03:39:04,VALID,1009.24,VALID,0,VALID,95.7261,VALID,0,VALID,24.1812,VALID,67,VALID,0.159375,
2008-04-26, 03:40:04,VALID,1009.24,VALID,0,VALID,95.7413,VALID,0,VALID,24.1812,VALID,68,VALID,0.351172,
2008-04-26, 03:41:04,VALID,1009.23,VALID,0,VALID,95.7413,VALID,0,VALID,24.2007,VALID,74,VALID,0.480859,
2008-04-26, 03:42:04,VALID,1009.23,VALID,0,VALID,95.749,VALID,0,VALID,24.2183,VALID,78,VALID,0.364844,
2008-04-26, 03:43:04,VALID,1009.23,VALID,0,VALID,95.7337,VALID,0,VALID,24.2396,VALID,78,VALID,0.294141,
2008-04-26, 03:44:04,VALID,1009.25,VALID,0,VALID,95.7413,VALID,0,VALID,24.2396,VALID,78,VALID,0.365234,
2008-04-26, 03:45:04,VALID,1009.25,VALID,0,VALID,95.6956,VALID,0,VALID,24.2396,VALID,77,VALID,0.273438,
2008-04-26, 03:46:04,VALID,1009.23,VALID,0,VALID,95.6803,VALID,0,VALID,24.261,VALID,78,VALID,0.271875,
2008-04-26, 03:47:04,VALID,1009.24,VALID,0,VALID,95.6422,VALID,0,VALID,24.2202,VALID,78,VALID,0.217187,